| time (UTC) | temp F | wind direction | speed MPH | gust MPH | rain 1hr in | rain 24hr in | rain mn in | humidity % | barometer mb |
| 20260903003039 | 81 | 233 | 17.0 | 25.0 | 0.00 | 0.00 | 0.00 | 24 | 1000.4 |
| 20260903001536 | 82 | 224 | 20.0 | 26.0 | 0.00 | 0.00 | 0.00 | 23 | 1000.5 |
| 20260903000032 | 82 | 250 | 12.0 | 23.0 | 0.00 | 0.00 | 0.00 | 24 | 1000.7 |
| 20260902234531 | 83 | 236 | 12.0 | 21.0 | 0.00 | 0.00 | 0.00 | 25 | 1000.8 |
| 20260902233103 | 83 | 239 | 14.0 | 26.0 | 0.00 | 0.02 | 0.00 | 25 | 1000.9 |
| 20260902231611 | 81 | 224 | 13.0 | 21.0 | 0.00 | 0.02 | 0.00 | 27 | 1001.1 |
| 20260902230030 | 82 | 248 | 17.0 | 22.0 | 0.00 | 0.02 | 0.00 | 27 | 1001.2 |
| 20260902224544 | 83 | 255 | 14.0 | 25.0 | 0.00 | 0.02 | 0.00 | 25 | 1001.3 |
| 20260902223026 | 83 | 245 | 16.0 | 30.0 | 0.00 | 0.02 | 0.00 | 26 | 1001.2 |
| 20260902221536 | 83 | 259 | 16.0 | 24.0 | 0.00 | 0.02 | 0.00 | 26 | 1001.3 |
| 20260902220046 | 82 | 258 | 18.0 | 28.0 | 0.00 | 0.02 | 0.00 | 27 | 1001.5 |
| 20260902214524 | 83 | 257 | 19.0 | 33.0 | 0.00 | 0.02 | 0.00 | 24 | 1001.6 |
| 20260902213053 | 81 | 211 | 24.0 | 42.0 | 0.00 | 0.02 | 0.00 | 24 | 1001.7 |
| 20260902211556 | 83 | 218 | 23.0 | 34.0 | 0.00 | 0.02 | 0.00 | 22 | 1001.5 |
| 20260902210050 | 84 | 219 | 24.0 | 33.0 | 0.00 | 0.02 | 0.00 | 20 | 1001.6 |
| 20260902204550 | 84 | 201 | 23.0 | 34.0 | 0.00 | 0.02 | 0.00 | 22 | 1001.9 |
| 20260902203046 | 84 | 221 | 25.0 | 33.0 | 0.00 | 0.02 | 0.00 | 21 | 1002.4 |
| 20260902201554 | 83 | 199 | 25.0 | 37.0 | 0.00 | 0.02 | 0.00 | 23 | 1002.3 |
| 20260902200042 | 84 | 213 | 22.0 | 31.0 | 0.00 | 0.02 | 0.00 | 22 | 1002.3 |
| 20260902194540 | 85 | 262 | 21.0 | 40.0 | 0.00 | 0.02 | 0.00 | 21 | 1002.5 |
| 20260902193044 | 83 | 222 | 24.0 | 34.0 | 0.00 | 0.02 | 0.00 | 21 | 1002.9 |
| 20260902191538 | 84 | 239 | 22.0 | 31.0 | 0.00 | 0.02 | 0.00 | 21 | 1003.0 |
| 20260902190034 | 83 | 231 | 14.0 | 38.0 | 0.00 | 0.02 | 0.00 | 24 | 1003.1 |
| 20260902184532 | 81 | 222 | 17.0 | 28.0 | 0.00 | 0.02 | 0.00 | 26 | 1003.5 |
| 20260902183032 | 82 | 226 | 15.0 | 30.0 | 0.00 | 0.02 | 0.00 | 25 | 1003.7 |
| 20260902181528 | 81 | 236 | 14.0 | 27.0 | 0.00 | 0.02 | 0.00 | 27 | 1003.9 |
| 20260902180023 | 82 | 226 | 14.0 | 25.0 | 0.00 | 0.02 | 0.00 | 28 | 1004.2 |
| 20260902174524 | 81 | 229 | 19.0 | 34.0 | 0.00 | 0.02 | 0.00 | 29 | 1004.4 |
| 20260902173023 | 81 | 206 | 15.0 | 28.0 | 0.00 | 0.02 | 0.00 | 29 | 1004.7 |
| 20260902171519 | 80 | 250 | 17.0 | 26.0 | 0.00 | 0.02 | 0.00 | 30 | 1004.7 |
| 20260902170017 | 80 | 227 | 21.0 | 31.0 | 0.00 | 0.02 | 0.00 | 30 | 1004.7 |
| 20260902164512 | 80 | 229 | 16.0 | 26.0 | 0.00 | 0.02 | 0.00 | 31 | 1004.8 |
| 20260902163010 | 79 | 271 | 16.0 | 22.0 | 0.00 | 0.02 | 0.00 | 32 | 1004.8 |
| 20260902161508 | 78 | 239 | 17.0 | 24.0 | 0.00 | 0.02 | 0.00 | 33 | 1004.8 |
| 20260902160007 | 78 | 245 | 15.0 | 22.0 | 0.00 | 0.02 | 0.00 | 34 | 1004.8 |
| 20260902154533 | 77 | 240 | 15.0 | 25.0 | 0.00 | 0.02 | 0.00 | 36 | 1004.9 |
| 20260902153045 | 76 | 238 | 16.0 | 23.0 | 0.00 | 0.03 | 0.00 | 37 | 1005.1 |
| 20260902151526 | 75 | 216 | 17.0 | 22.0 | 0.00 | 0.03 | 0.00 | 38 | 1005.2 |
| 20260902150023 | 74 | 236 | 15.0 | 20.0 | 0.00 | 0.03 | 0.00 | 40 | 1005.3 |
| 20260902144519 | 72 | 228 | 16.0 | 24.0 | 0.00 | 0.03 | 0.00 | 43 | 1005.4 |
| 20260902143014 | 71 | 227 | 16.0 | 23.0 | 0.00 | 0.03 | 0.00 | 45 | 1005.5 |
| 20260902141507 | 69 | 243 | 14.0 | 21.0 | 0.00 | 0.03 | 0.00 | 47 | 1005.5 |
| 20260902140005 | 69 | 257 | 14.0 | 23.0 | 0.00 | 0.03 | 0.00 | 48 | 1005.4 |
| 20260902134505 | 68 | 229 | 14.0 | 23.0 | 0.00 | 0.03 | 0.00 | 49 | 1005.6 |
| 20260902133102 | 67 | 229 | 15.0 | 20.0 | 0.00 | 0.03 | 0.00 | 52 | 1005.5 |
| 20260902131538 | 63 | 217 | 12.0 | 17.0 | 0.00 | 0.03 | 0.00 | 58 | 1005.5 |
| 20260902130026 | 62 | 216 | 13.0 | 18.0 | 0.00 | 0.03 | 0.00 | 60 | 1005.3 |
| 20260902124521 | 60 | 223 | 10.0 | 13.0 | 0.00 | 0.03 | 0.00 | 62 | 1005.3 |
| 20260902123021 | 61 | 217 | 7.0 | 11.0 | 0.00 | 0.03 | 0.00 | 59 | 1005.4 |
| 20260902121520 | 59 | 222 | 8.0 | 11.0 | 0.00 | 0.03 | 0.00 | 63 | 1005.3 |
| 20260902120021 | 60 | 140 | 8.0 | 10.0 | 0.00 | 0.03 | 0.00 | 59 | 1005.3 |
| 20260902114517 | 59 | 175 | 5.0 | 7.0 | 0.00 | 0.03 | 0.00 | 59 | 1005.3 |
| 20260902113017 | 59 | 190 | 5.0 | 8.0 | 0.00 | 0.03 | 0.00 | 59 | 1005.4 |
| 20260902111518 | 59 | 200 | 5.0 | 8.0 | 0.00 | 0.03 | 0.00 | 59 | 1005.2 |
| 20260902110025 | 59 | 197 | 5.0 | 7.0 | 0.00 | 0.03 | 0.00 | 59 | 1005.1 |
| 20260902104512 | 60 | 215 | 6.0 | 10.0 | 0.00 | 0.03 | 0.00 | 56 | 1005.0 |
| 20260902103011 | 61 | 225 | 7.0 | 11.0 | 0.00 | 0.03 | 0.00 | 55 | 1005.0 |
| 20260902101510 | 62 | 223 | 8.0 | 13.0 | 0.00 | 0.03 | 0.00 | 53 | 1004.8 |
| 20260902100014 | 63 | 227 | 10.0 | 16.0 | 0.00 | 0.03 | 0.00 | 51 | 1004.8 |
| 20260902094505 | 63 | 226 | 10.0 | 14.0 | 0.00 | 0.03 | 0.00 | 51 | 1004.8 |
| 20260902093001 | 63 | 231 | 10.0 | 13.0 | 0.00 | 0.03 | 0.00 | 52 | 1005.0 |
| 20260902091559 | 60 | 223 | 8.0 | 11.0 | 0.00 | 0.03 | 0.00 | 58 | 1005.1 |
| 20260902090059 | 58 | 223 | 4.0 | 8.0 | 0.00 | 0.03 | 0.00 | 61 | 1005.2 |
| 20260902084552 | 58 | 184 | 5.0 | 7.0 | 0.00 | 0.03 | 0.00 | 62 | 1005.1 |
| 20260902083052 | 59 | 201 | 7.0 | 10.0 | 0.00 | 0.03 | 0.00 | 61 | 1005.2 |
| 20260902081550 | 57 | 219 | 5.0 | 6.0 | 0.00 | 0.03 | 0.00 | 67 | 1005.2 |
| 20260902080050 | 58 | 215 | 5.0 | 7.0 | 0.00 | 0.03 | 0.00 | 66 | 1005.3 |
| 20260902074556 | 57 | 198 | 5.0 | 8.0 | 0.00 | 0.03 | 0.00 | 67 | 1005.1 |
| 20260902073046 | 58 | 189 | 5.0 | 6.0 | 0.00 | 0.03 | 0.00 | 67 | 1005.1 |
| 20260902071544 | 59 | 220 | 6.0 | 8.0 | 0.00 | 0.03 | 0.00 | 65 | 1005.2 |
| 20260902070041 | 57 | 209 | 6.0 | 9.0 | 0.00 | 0.03 | 0.00 | 72 | 1005.4 |
| 20260902064511 | 56 | 206 | 4.0 | 6.0 | 0.00 | 0.03 | 0.00 | 71 | 1005.5 |
| 20260902063008 | 57 | 198 | 4.0 | 6.0 | 0.00 | 0.03 | 0.00 | 72 | 1005.3 |
| 20260902061509 | 56 | 199 | 5.0 | 7.0 | 0.00 | 0.03 | 0.00 | 72 | 1005.4 |
| 20260902060004 | 56 | 206 | 1.0 | 3.0 | 0.00 | 0.03 | 0.00 | 73 | 1005.3 |
| 20260902054501 | 56 | 206 | 4.0 | 8.0 | 0.00 | 0.03 | 0.00 | 74 | 1005.4 |
| 20260902053106 | 56 | 253 | 2.0 | 3.0 | 0.00 | 0.03 | 0.03 | 71 | 1005.2 |
| 20260902051600 | 56 | 124 | 1.0 | 4.0 | 0.00 | 0.03 | 0.03 | 71 | 1005.2 |
| 20260902050059 | 56 | 110 | 2.0 | 3.0 | 0.00 | 0.03 | 0.03 | 71 | 1005.2 |
| 20260902044555 | 56 | 199 | 3.0 | 5.0 | 0.00 | 0.03 | 0.03 | 70 | 1005.1 |
| 20260902043053 | 57 | 269 | 1.0 | 3.0 | 0.00 | 0.03 | 0.03 | 70 | 1005.0 |
| 20260902041553 | 57 | 139 | 1.0 | 2.0 | 0.00 | 0.03 | 0.03 | 73 | 1005.0 |
| 20260902040053 | 57 | 152 | 1.0 | 6.0 | 0.00 | 0.03 | 0.03 | 72 | 1005.0 |
| 20260902034553 | 60 | 223 | 4.0 | 5.0 | 0.00 | 0.03 | 0.03 | 67 | 1005.0 |
| 20260902034551 | 60 | 221 | 4.0 | 5.0 | 0.00 | 0.03 | 0.03 | 67 | 1005.0 |
| 20260902033049 | 61 | 223 | 3.0 | 4.0 | 0.00 | 0.03 | 0.03 | 67 | 1004.9 |
| 20260902031549 | 62 | 59 | 1.0 | 5.0 | 0.00 | 0.03 | 0.03 | 63 | 1004.7 |
| 20260902030046 | 62 | 193 | 1.0 | 4.0 | 0.00 | 0.03 | 0.03 | 66 | 1004.5 |
| 20260902024547 | 65 | 191 | 2.0 | 3.0 | 0.00 | 0.03 | 0.03 | 61 | 1004.1 |
| 20260902023100 | 66 | 145 | 2.0 | 4.0 | 0.00 | 0.03 | 0.03 | 56 | 1003.8 |
| 20260902021545 | 67 | 290 | 1.0 | 5.0 | 0.00 | 0.03 | 0.03 | 53 | 1003.7 |
| 20260902020015 | 68 | 223 | 0.0 | 3.0 | 0.00 | 0.03 | 0.03 | 55 | 1003.5 |
| 20260902014515 | 71 | 340 | 0.0 | 3.0 | 0.00 | 0.03 | 0.03 | 47 | 1003.4 |
| 20260902013014 | 71 | 59 | 1.0 | 6.0 | 0.00 | 0.03 | 0.03 | 46 | 1003.4 |
| 20260902011516 | 73 | 23 | 3.0 | 6.0 | 0.00 | 0.03 | 0.03 | 44 | 1003.3 |
| 20260902010015 | 74 | 13 | 3.0 | 7.0 | 0.00 | 0.03 | 0.03 | 42 | 1003.3 |
| 20260902004511 | 75 | 56 | 5.0 | 10.0 | 0.00 | 0.03 | 0.03 | 40 | 1003.4 |